[[{"header":{"parameterUnit":"m.s-1","parameterCategory":1,"la1":30.2991,"la2":30.254,"lo1":-89.0895,"lo2":-89.0444,"dx":0.0017,"dy":0.0017,"nx":28,"ny":28,"refTime":"2023-01-12T15:00:00:Z","depth":0,"parameterNumber":2,"parameterNumberName":"U-component_of_WINDS"},"data":[0,0,0,0,0,0,0,0,0,0,0,0,0,0,0,0,0,0,0,0,0,0,0,0,0,0,0,0,0,0,0,0,0,0,0,0,0,0,0,0,0,0,0,0,0,0,0,0,0,0,0,0,0,0,0,0,0,0,3.0121,3.0121,0,3.0138,3.0138,3.0139,3.0104,3.0103,3.0102,3.0101,3.0118,3.012,3.0121,0,0,0,0,0,0,0,0,0,0,0,0,0,3.0061,3.0062,3.0121,3.0121,3.0122,3.0138,3.0138,3.0139,3.0104,3.0103,3.0102,3.01,3.0118,3.0119,3.0121,0,0,0,0,0,0,0,0,0,0,0,0,0,3.0083,3.0062,3.0121,3.0106,3.0105,3.0138,3.0138,3.0139,3.0105,3.0103,3.0101,3.01,3.0117,3.0119,3.0121,3.0169,0,0,3.0128,3.0129,0,0,0,0,0,0,0,0,3.0082,3.0085,3.0108,3.0108,3.0106,3.0117,3.0123,3.0149,3.0105,3.0105,3.0101,3.0099,3.0119,3.0121,3.0128,3.017,3.0171,3.0129,3.013,3.0131,3.0132,0,0,0,0,0,0,0,3.008,3.0084,3.0128,3.0109,3.0108,3.01,3.0101,3.0128,3.0121,3.0105,3.0102,3.0105,3.0118,3.0126,3.0128,3.0171,3.0129,3.0131,3.0132,3.0133,3.0255,3.0257,0,0,0,0,0,0,3.0081,3.0083,3.0127,3.0128,3.009,3.0102,3.0103,3.0115,3.0121,3.012,3.0106,3.0103,3.0123,3.0126,3.0129,3.0186,3.0131,3.0133,3.0134,3.0253,3.0256,3.0258,0,0,0,0,0,0,3.0079,3.0085,3.0127,3.0105,3.011,3.0105,3.0119,3.0117,3.0124,3.0122,3.0121,3.0115,3.0122,3.0126,3.016,3.0186,3.0134,3.0136,3.0251,3.0254,3.0257,3.03,0,0,0,0,0,0,3.0078,3.0085,3.0102,3.0106,3.0111,3.0157,3.012,3.0118,3.0128,3.0124,3.013,3.0129,3.0121,3.0157,3.0162,3.0188,3.0138,3.0249,3.0252,3.0256,3.0297,3.0304,3.0311,0,0,0,0,0,3.0076,3.0113,3.0103,3.0109,3.0133,3.0159,3.0162,3.0151,3.013,3.0149,3.0148,3.0129,3.0183,3.016,3.0166,3.0194,3.0247,3.0251,3.0255,3.0293,3.0303,3.0311,0,0,0,0,0,0,3.0112,3.0113,3.0102,3.0142,3.0151,3.0153,3.0175,3.0161,3.0175,3.0171,3.0157,3.0159,3.0196,3.0198,3.0174,3.0241,3.0211,3.0217,3.0238,3.0247,3.0254,3.0253,3.014,0,0,0,0,0,3.0125,3.0145,3.0146,3.0181,3.0186,3.018,3.0191,3.0182,3.019,3.0193,3.0195,3.0203,3.0222,3.0235,3.0252,3.0297,3.0298,3.0319,3.0326,3.0332,3.0337,3.0363,3.0372,3.0272,3.0272,3.0271,0,0,3.0151,3.0155,3.0168,3.0188,3.0194,3.0216,3.0183,3.0207,3.0224,3.0197,3.023,3.0231,3.024,3.0281,3.0299,3.0284,3.0365,3.0338,3.0342,3.0344,3.0368,3.0377,3.0386,3.0274,3.0274,3.0273,0,0,3.0211,3.0215,3.0245,3.0252,3.0261,3.0258,3.0265,3.027,3.027,3.0303,3.0284,3.0304,3.0336,3.0344,3.0352,3.0417,3.0401,3.0423,3.0461,3.0486,3.0494,3.0501,3.0525,3.0533,3.0428,3.0428,3.0428,0,3.0242,3.0274,3.0263,3.0289,3.0299,3.0277,3.0308,3.0315,3.033,3.0337,3.0321,3.0362,3.0367,3.0409,3.0425,3.0432,3.0441,3.0422,3.0493,3.05,3.0507,3.0529,3.0538,3.0431,3.0431,3.043,3.043,0,3.0313,3.0336,3.036,3.0375,3.0388,3.0416,3.041,3.0424,3.0415,3.0414,3.0448,3.0453,3.0472,3.0481,3.0472,3.0523,3.0514,3.0496,3.0465,3.0519,3.054,3.0549,3.0435,3.0434,3.0433,3.0432,0,0,3.0394,3.0404,3.0413,3.0421,3.043,3.0448,3.0476,3.0495,3.0508,3.0519,3.0543,3.0573,3.0556,3.0566,3.0558,3.058,3.0632,3.0559,3.0559,3.0573,3.069,3.0704,3.0714,3.0622,3.0624,3.0625,3.069,0,3.0454,3.0502,3.0494,3.0542,3.0563,3.0544,3.0569,3.0578,3.0578,3.0597,3.0596,3.0618,3.0594,3.06,3.0621,3.0621,3.0656,3.0617,3.0645,3.0646,3.0643,3.0725,3.0739,3.08,3.0698,3.0699,3.07,0,3.0529,3.0544,3.0594,3.0602,3.0611,3.0633,3.065,3.0669,3.0679,3.0678,3.0689,3.0678,3.0707,3.0677,3.0718,3.0692,3.0703,3.0706,3.0708,3.071,3.0676,3.073,3.0819,3.0828,3.0713,3.0712,3.0711,0,3.0584,3.0617,3.0651,3.0658,3.0668,3.0684,3.0689,3.0698,3.0711,3.0726,3.0734,3.0753,3.0763,3.0778,3.0772,3.0751,3.0815,3.0784,3.0815,3.0815,3.0829,3.0828,3.0921,3.0836,3.0836,3.0836,3.0836,0,3.0651,3.0682,3.0676,3.0697,3.0733,3.0723,3.0759,3.0761,3.077,3.0792,3.0776,3.0797,3.0789,3.0809,3.0805,3.0841,3.0845,3.0845,3.0844,3.0847,3.0847,3.0854,3.0849,3.0839,3.0838,3.0838,3.0837,0,3.0718,3.0715,3.0751,3.0758,3.0761,3.0787,3.0793,3.0813,3.0813,3.0841,3.0847,3.0846,3.087,3.0866,3.0893,3.089,3.0934,3.0928,3.0931,3.0929,3.0961,3.0958,3.1061,3.1075,3.0981,3.0982,3.0983,0,3.0761,3.0785,3.0795,3.0809,3.0815,3.0837,3.085,3.0843,3.0857,3.0872,3.0891,3.0914,3.0931,3.0971,3.0973,3.0994,3.0987,3.1022,3.099,3.0993,3.0989,3.0987,3.099,3.1028,3.103,3.103,3.1031,0,3.0837,3.0835,3.0854,3.0874,3.089,3.0905,3.0918,3.093,3.0924,3.0941,3.0966,3.098,3.1008,3.1031,3.105,3.1056,3.1043,3.1042,3.105,3.1053,3.1054,3.1054,3.0948,3.1039,3.1038,3.1038,3.1037,3.1037,3.0894,3.0915,3.0926,3.0948,3.0958,3.0971,3.0991,3.0994,3.1014,3.1036,3.1031,3.1059,3.1071,3.1096,3.1104,3.1127,3.1114,3.1126,3.1129,3.1132,3.1136,3.1051,3.113,3.113,3.113,3.113,3.1129,0,3.097,3.0977,3.0998,3.1017,3.1035,3.1022,3.1037,3.1053,3.1078,3.109,3.1108,3.1138,3.1161,3.1165,3.1187,3.1205,3.1199,3.1211,3.1209,3.1211,3.1146,3.1137,3.1215,3.1215,3.1215,3.1215,3.1215,3.1215,3.1012,3.1047,3.1047,3.1087,3.1094,3.1121,3.1131,3.1144,3.1154,3.1187,3.1206,3.1209,3.1219,3.1242,3.1263,3.1264,3.1273,3.1287,3.1285,3.1224,3.1216,3.1207,3.1199,3.1289,3.1289,3.1349,3.1349,3.135]},{"header":{"parameterUnit":"m.s-1","parameterCategory":1,"la1":30.2991,"la2":30.254,"lo1":-89.0895,"lo2":-89.0444,"dx":0.0017,"dy":0.0017,"nx":28,"ny":28,"refTime":"2023-01-12T15:00:00:Z","depth":0,"parameterNumber":3,"parameterNumberName":"V-component_of_WINDS"},"data":[0,0,0,0,0,0,0,0,0,0,0,0,0,0,0,0,0,0,0,0,0,0,0,0,0,0,0,0,0,0,0,0,0,0,0,0,0,0,0,0,0,0,0,0,0,0,0,0,0,0,0,0,0,0,0,0,0,0,-7.0373,-7.0375,0,-7.0527,-7.0528,-7.053,-7.0527,-7.0525,-7.0523,-7.0521,-7.0672,-7.0677,-7.0683,0,0,0,0,0,0,0,0,0,0,0,0,0,-7.0074,-7.0079,-7.0373,-7.0375,-7.0377,-7.0526,-7.0528,-7.0531,-7.0527,-7.0525,-7.0522,-7.052,-7.067,-7.0677,-7.0684,0,0,0,0,0,0,0,0,0,0,0,0,0,-7.0213,-7.0081,-7.0373,-7.0393,-7.0397,-7.0526,-7.0529,-7.0531,-7.0528,-7.0524,-7.0521,-7.0518,-7.0667,-7.0676,-7.0685,-7.0802,0,0,-7.0712,-7.0716,0,0,0,0,0,0,0,0,-7.0205,-7.0224,-7.0389,-7.0392,-7.0396,-7.0505,-7.0478,-7.0622,-7.0528,-7.0478,-7.0521,-7.0517,-7.0618,-7.0631,-7.0666,-7.0809,-7.0815,-7.0713,-7.0718,-7.0722,-7.0724,0,0,0,0,0,0,0,-7.0195,-7.0217,-7.0434,-7.0391,-7.0396,-7.0394,-7.041,-7.0505,-7.0563,-7.0482,-7.0482,-7.0501,-7.062,-7.0658,-7.067,-7.0817,-7.0713,-7.072,-7.0726,-7.0729,-7.1066,-7.1069,0,0,0,0,0,0,-7.0182,-7.0209,-7.0429,-7.0438,-7.0291,-7.0402,-7.042,-7.0473,-7.0562,-7.0573,-7.0503,-7.05,-7.0644,-7.0659,-7.0675,-7.0819,-7.0722,-7.073,-7.0735,-7.1062,-7.1066,-7.107,0,0,0,0,0,0,-7.0176,-7.0202,-7.0423,-7.0324,-7.0352,-7.041,-7.0469,-7.0477,-7.0516,-7.0578,-7.0588,-7.0532,-7.0642,-7.0662,-7.0771,-7.0825,-7.0734,-7.0742,-7.1058,-7.1063,-7.1068,-7.1108,0,0,0,0,0,0,-7.0167,-7.0199,-7.0245,-7.0325,-7.0357,-7.0518,-7.0473,-7.0483,-7.0532,-7.0529,-7.0608,-7.0618,-7.0641,-7.0758,-7.078,-7.0835,-7.0749,-7.1053,-7.106,-7.1067,-7.1102,-7.1114,-7.1124,0,0,0,0,0,-7.0156,-7.0248,-7.0247,-7.0274,-7.0416,-7.0521,-7.0539,-7.0566,-7.0536,-7.0582,-7.0623,-7.0615,-7.0815,-7.0769,-7.0794,-7.0852,-7.105,-7.1058,-7.1066,-7.1097,-7.1112,-7.1124,0,0,0,0,0,0,-7.017,-7.0259,-7.0259,-7.038,-7.0443,-7.052,-7.0579,-7.058,-7.0651,-7.0645,-7.0674,-7.0692,-7.0801,-7.0837,-7.0784,-7.0971,-7.0929,-7.0942,-7.0944,-7.0958,-7.0969,-7.0958,-7.0757,0,0,0,0,0,-7.0188,-7.0267,-7.0339,-7.0439,-7.0471,-7.052,-7.0566,-7.0582,-7.0648,-7.0674,-7.0722,-7.0785,-7.0862,-7.0912,-7.0986,-7.1108,-7.1125,-7.116,-7.1171,-7.118,-7.1191,-7.126,-7.1277,-7.1097,-7.1097,-7.1097,0,0,-7.0224,-7.0282,-7.033,-7.0443,-7.0494,-7.0575,-7.0542,-7.0628,-7.0688,-7.0686,-7.0793,-7.0831,-7.0902,-7.1019,-7.1072,-7.1052,-7.1245,-7.119,-7.1197,-7.1203,-7.127,-7.1287,-7.1302,-7.1102,-7.1101,-7.1101,0,0,-7.0331,-7.0383,-7.0473,-7.0526,-7.0604,-7.0636,-7.0658,-7.0736,-7.0762,-7.087,-7.0871,-7.0942,-7.1073,-7.1126,-7.1169,-7.13,-7.1295,-7.1323,-7.138,-7.1447,-7.1461,-7.1474,-7.1521,-7.1538,-7.1334,-7.1334,-7.1334,0,-7.0365,-7.0488,-7.0518,-7.0606,-7.0656,-7.0662,-7.0753,-7.0801,-7.0899,-7.0933,-7.091,-7.1078,-7.1127,-7.1256,-7.1288,-7.1323,-7.1349,-7.1313,-7.1457,-7.147,-7.1482,-7.1528,-7.1545,-7.1337,-7.1336,-7.1336,-7.1336,0,-7.0528,-7.0613,-7.0676,-7.0774,-7.0831,-7.0919,-7.0962,-7.1016,-7.1028,-7.1062,-7.1173,-7.1232,-7.1319,-7.1351,-7.1361,-7.1483,-7.1468,-7.1451,-7.1408,-7.1502,-7.1545,-7.1563,-7.1341,-7.134,-7.1339,-7.1338,0,0,-7.0646,-7.0762,-7.0784,-7.083,-7.0918,-7.0984,-7.1073,-7.1162,-7.1208,-7.1276,-7.1351,-7.1464,-7.145,-7.1499,-7.1516,-7.1575,-7.1676,-7.155,-7.1552,-7.1572,-7.1815,-7.1828,-7.1847,-7.1674,-7.1678,-7.168,-7.1809,0,-7.0763,-7.0924,-7.0955,-7.1094,-7.1174,-7.1182,-7.126,-7.1322,-7.1357,-7.1429,-7.1466,-7.1547,-7.1521,-7.1551,-7.161,-7.1651,-7.1725,-7.1642,-7.1744,-7.1747,-7.1727,-7.187,-7.1883,-7.2002,-7.1826,-7.1829,-7.1831,0,-7.0921,-7.0997,-7.1145,-7.1225,-7.126,-7.133,-7.1414,-7.1483,-7.1554,-7.1575,-7.1633,-7.1643,-7.1736,-7.169,-7.1818,-7.1761,-7.1805,-7.1832,-7.1837,-7.1847,-7.1795,-7.1885,-7.204,-7.2058,-7.1858,-7.1855,-7.1854,0,-7.0994,-7.1132,-7.124,-7.1278,-7.1374,-7.1423,-7.1465,-7.1533,-7.1585,-7.1659,-7.1693,-7.1775,-7.182,-7.1883,-7.1915,-7.1879,-7.2041,-7.1998,-7.2062,-7.2061,-7.2095,-7.2092,-7.226,-7.2122,-7.2122,-7.2122,-7.2121,0,-7.1122,-7.1213,-7.1274,-7.134,-7.1442,-7.1477,-7.1576,-7.1617,-7.1678,-7.1752,-7.1762,-7.1831,-7.187,-7.1944,-7.1969,-7.2072,-7.2092,-7.2112,-7.2118,-7.2111,-7.2109,-7.214,-7.2133,-7.2127,-7.2126,-7.2125,-7.2124,0,-7.1221,-7.1266,-7.1383,-7.1466,-7.1489,-7.156,-7.163,-7.1695,-7.1731,-7.1824,-7.1847,-7.1903,-7.1991,-7.2031,-7.2138,-7.2155,-7.2273,-7.2273,-7.225,-7.2252,-7.2314,-7.2308,-7.2508,-7.2536,-7.2379,-7.2381,-7.2382,0,-7.13,-7.137,-7.1462,-7.1513,-7.1557,-7.1639,-7.1693,-7.173,-7.1785,-7.1873,-7.1927,-7.2016,-7.2089,-7.2229,-7.2278,-7.2361,-7.2363,-7.2428,-7.2375,-7.2368,-7.2365,-7.2361,-7.2369,-7.2437,-7.2438,-7.2439,-7.244,0,-7.1435,-7.1455,-7.1533,-7.1621,-7.1686,-7.1756,-7.1824,-7.1865,-7.1912,-7.1974,-7.2066,-7.2123,-7.2235,-7.2323,-7.241,-7.2451,-7.2454,-7.2457,-7.2476,-7.247,-7.2455,-7.2465,-7.2277,-7.2452,-7.2451,-7.245,-7.2449,-7.2449,-7.1527,-7.1591,-7.1666,-7.1754,-7.181,-7.1875,-7.194,-7.1986,-7.2063,-7.2159,-7.2176,-7.2273,-7.2344,-7.2461,-7.2506,-7.2583,-7.2567,-7.2595,-7.2602,-7.2608,-7.2613,-7.2443,-7.2598,-7.2598,-7.2598,-7.2598,-7.2597,0,-7.1664,-7.1714,-7.1795,-7.1892,-7.1961,-7.196,-7.2037,-7.2094,-7.2181,-7.2248,-7.2321,-7.2427,-7.2513,-7.2571,-7.2658,-7.2708,-7.2712,-7.273,-7.2727,-7.2736,-7.2621,-7.2596,-7.2726,-7.2726,-7.2726,-7.2726,-7.2726,-7.2726,-7.1744,-7.1853,-7.1882,-7.2019,-7.2067,-7.2165,-7.2209,-7.2269,-7.2322,-7.2441,-7.2514,-7.2552,-7.2616,-7.2708,-7.2787,-7.2802,-7.2834,-7.2853,-7.2867,-7.2758,-7.2744,-7.2731,-7.2708,-7.2859,-7.2859,-7.2976,-7.2977,-7.2978]}]]